Location: Prairie State College
(41.5244°N, 87.6382°W)
Time: 22:49:03
(UTC-05:00)

ISS - All Passes

Search period start: 16 April 2014 00:00
Search period end: 26 April 2014 00:00
Orbit: 414 x 419 km, 51.6° (Epoch: 17 April)

Date Brightness Start Highest point End Pass type
(mag) Time Alt. Az. Time Alt. Az. Time Alt. Az.
16 Apr - 00:29:38 10° W 00:32:10 20° SW 00:34:41 10° S night (unlit)
16 Apr - 15:36:31 10° SSE 15:38:27 15° SE 15:40:24 10° E daylight
16 Apr - 17:11:31 10° WSW 17:14:51 67° NNW 17:18:12 10° NE daylight
16 Apr - 18:49:38 10° WNW 18:52:05 19° NNW 18:54:33 10° NNE daylight
16 Apr - 20:27:44 10° NNW 20:29:49 15° N 20:31:54 10° NE visible
16 Apr - 22:04:13 10° NW 22:07:20 34° NNE 22:10:26 10° E visible
16 Apr - 23:41:00 10° WNW 23:44:05 34° SW 23:47:08 10° SSE visible
17 Apr - 16:23:16 10° SW 16:26:35 72° SE 16:29:57 10° ENE daylight
17 Apr - 18:00:53 10° WNW 18:03:38 23° NNW 18:06:23 10° NE daylight
17 Apr - 19:39:19 10° NW 19:41:17 15° N 19:43:16 10° NE daylight
17 Apr - 21:16:04 10° NW 21:18:55 25° NNE 21:21:46 10° E visible
17 Apr - 22:52:34 10° WNW 22:55:53 60° SW 22:59:12 10° SE visible
18 Apr - 15:35:12 10° SSW 15:38:21 40° SE 15:41:32 10° ENE daylight
18 Apr - 17:12:09 10° W 17:15:10 30° NNW 17:18:12 10° NE daylight
18 Apr - 18:50:42 10° NW 18:52:43 15° N 18:54:45 10° NNE daylight
18 Apr - 20:27:52 10° NNW 20:30:26 20° NNE 20:32:59 10° ENE visible
18 Apr - 22:04:14 10° NW 22:07:36 79° NE 22:10:57 10° ESE visible
18 Apr - 23:42:28 10° WSW 23:43:55 12° SW 23:45:21 10° SSW night (unlit)
19 Apr - 14:47:26 10° S 14:50:08 23° SE 14:52:52 10° E daylight
19 Apr - 16:23:30 10° WSW 16:26:44 44° NNW 16:29:58 10° NE daylight
19 Apr - 18:01:54 10° NW 18:04:07 16° N 18:06:20 10° NNE daylight
19 Apr - 19:39:35 10° NNW 19:41:51 17° N 19:44:07 10° NE daylight
19 Apr - 21:15:56 10° NW 21:19:13 48° NNE 21:22:29 10° ESE visible
19 Apr - 22:53:09 10° W 22:55:45 21° SW 22:58:21 10° S visible
20 Apr - 14:00:12 10° SSE 14:01:57 14° SE 14:03:42 10° E daylight
20 Apr - 15:34:58 10° WSW 15:38:18 71° NW 15:41:39 10° NE daylight
20 Apr - 17:13:01 10° WNW 17:15:30 19° NNW 17:18:00 10° NNE daylight
20 Apr - 18:51:10 10° NNW 18:53:13 15° N 18:55:16 10° NE daylight
20 Apr - 20:27:39 10° NW 20:30:44 32° NNE 20:33:48 10° E visible
20 Apr - 22:04:23 10° WNW 22:07:30 36° SW 22:10:36 10° SSE visible
21 Apr - 14:46:35 10° SW 14:49:53 67° SE 14:53:13 10° ENE daylight
21 Apr - 16:24:07 10° WNW 16:26:53 23° NNW 16:29:40 10° NE daylight
21 Apr - 18:02:34 10° NW 18:04:31 15° N 18:06:29 10° NE daylight
21 Apr - 19:39:21 10° NW 19:42:09 24° NNE 19:44:57 10° ENE daylight
21 Apr - 21:15:48 10° WNW 21:19:08 65° SW 21:22:27 10° SE visible
22 Apr - 13:58:24 10° SSW 14:01:30 37° SE 14:04:37 10° ENE daylight
22 Apr - 15:35:14 10° W 15:38:16 31° NNW 15:41:19 10° NE daylight
22 Apr - 17:13:45 10° NW 17:15:47 15° N 17:17:49 10° NNE daylight
22 Apr - 18:50:59 10° NNW 18:53:30 19° NNE 18:56:00 10° ENE daylight
22 Apr - 20:27:19 10° NW 20:30:41 74° NE 20:34:01 10° ESE visible
22 Apr - 22:05:20 10° W 22:07:01 13° SW 22:08:41 10° SSW visible
23 Apr - 13:10:31 10° S 13:13:08 22° SE 13:15:46 10° E daylight
23 Apr - 14:46:26 10° WSW 14:49:40 46° NNW 14:52:55 10° NE daylight
23 Apr - 16:24:47 10° NW 16:27:02 17° N 16:29:16 10° NNE daylight
23 Apr - 18:02:32 10° NNW 18:04:45 16° N 18:06:58 10° NE daylight
23 Apr - 19:38:53 10° NW 19:42:07 45° NNE 19:45:21 10° ESE daylight
23 Apr - 21:15:59 10° W 21:18:41 23° SW 21:21:22 10° S visible
24 Apr - 12:23:17 10° SSE 12:24:47 13° SE 12:26:17 10° ESE daylight
24 Apr - 13:57:45 10° WSW 14:01:05 77° NW 14:04:26 10° NE daylight
24 Apr - 15:35:44 10° WNW 15:38:15 19° NNW 15:40:47 10° NNE daylight
24 Apr - 17:13:56 10° NNW 17:15:57 15° N 17:17:58 10° NE daylight
24 Apr - 18:50:26 10° NW 18:53:28 31° NNE 18:56:30 10° E daylight
24 Apr - 20:27:06 10° WNW 20:30:15 39° SW 20:33:24 10° SSE visible
25 Apr - 13:09:14 10° SW 13:12:31 61° SE 13:15:50 10° ENE daylight
25 Apr - 14:46:40 10° WNW 14:49:29 24° NNW 14:52:18 10° NE daylight
25 Apr - 16:25:08 10° NW 16:27:05 15° N 16:29:03 10° NE daylight
25 Apr - 18:01:58 10° NW 18:04:43 23° NNE 18:07:28 10° ENE daylight
25 Apr - 19:38:23 10° WNW 19:41:44 71° SW 19:45:03 10° SE daylight
